Location: Burera
(21.3780°N, 81.9534°E)
Time: 11:33:23
(UTC+00:00)

GPS 2-15 Rocket1 - Pass Details

Date: 13 August 2020
Orbit: 624 x 675 km, 19.8° (Epoch: 21 September)

Event Time Altitude Azimuth Distance (km) Brightness Sun altitude
Rises 13:39:10 0° 228° (SW) 2,884 6.9 -8.7°
Reaches altitude 10° 13:41:56 10° 213° (SSW) 1,975 5.8 -9.3°
Maximum altitude 13:45:32 22° 162° (SSE) 1,344 4.4 -10.1°
Enters shadow 13:48:11 14° 119° (ESE) 1,718 4.7 -10.7°
